Montpelier, VT

9:00 AM EST on December 06, 2019 (GMT -0500)
Knapp State

Weather History for KMPV - July, 2019

Change the Weather History Date:

Friday, July 26, 2019

  Actual Average Record
Temperature  
Mean Temperature 68 °F 67 °F  
Max Temperature 82 °F 79 °F 90 °F (1989)
Min Temperature 53 °F 56 °F 44 °F (1976)
Degree Days  
Heating Degree Days 0 1  
Month to date heating degree days 32  
Since 1 June heating degree days 153  
Since 1 July heating degree days 32  
Cooling Degree Days 2 3  
Month to date cooling degree days 82  
Year to date cooling degree days 145  
Since 1 June cooling degree days 135  
Growing Degree Days 18 (Base 50)    
Moisture  
Dew Point 57 °F    
Average Humidity 83    
Maximum Humidity 100    
Minimum Humidity 41    
Precipitation  
Precipitation 0.00 in 0.14 in 0.98 in (1986)
Month to date precipitation 3.34  
Year to date precipitation 20.05  
Sea Level Pressure  
Sea Level Pressure 30.29 in    
Wind  
Wind Speed 1 mph ()    
Max Wind Speed 5 mph    
Max Gust Speed -    
Visibility 7.4 miles    
Events Fog    
T = Trace of Precipitation, MM = Missing Value Source: Averaged Metar Reports

Daily Weather History Graph

Daily Weather History Graph

Search for Another Location

Airport or City:

Astronomy

Jul. 26, 2019 Rise Set
Actual Time 5:31 AM EDT 8:21 PM EDT
Civil Twilight 4:57 AM EDT 8:55 PM EDT
Nautical Twilight 4:14 AM EDT 9:38 PM EDT
Astronomical Twilight 3:23 AM EDT 10:28 PM EDT
Moon 12:47 AM EDT (7/26) 3:00 PM EDT (7/26)
Length of Visible Light 15h 58m
Length of Day
14h 50m
Waning Crescent, 34% of the Moon is Illuminated
Jul 26
Waning Crescent
Jul 31
New
Aug 7
First Quarter
Aug 15
Full
Aug 23
Last Quarter

Hourly Weather History & Observations

Time (EDT) Temp. Heat Index Dew Point Humidity Pressure Visibility Wind Dir Wind Speed Gust Speed Precip Events Conditions
12:51 AM 60.1 °F - 57.0 °F 90% 30.23 in 10.0 mi Calm Calm - N/A   Partly Cloudy
1:51 AM 57.0 °F - 55.9 °F 96% 30.25 in 10.0 mi Calm Calm - N/A   Clear
2:51 AM 57.0 °F - 55.9 °F 96% 30.25 in 10.0 mi Calm Calm - N/A   Clear
3:51 AM 55.0 °F - 54.0 °F 96% 30.26 in 10.0 mi Calm Calm - N/A   Clear
4:23 AM 55.0 °F - 54.0 °F 96% 30.27 in 10.0 mi Calm Calm - N/A   Scattered Clouds
4:35 AM 54.0 °F - 54.0 °F 100% 30.27 in 1.8 mi Calm Calm - N/A   Partly Cloudy
4:38 AM 54.0 °F - 54.0 °F 100% 30.27 in 1.0 mi Calm Calm - N/A   Mist
4:42 AM 54.0 °F - 53.1 °F 97% 30.27 in 1.5 mi Calm Calm - N/A   Partly Cloudy
4:46 AM 53.6 °F - 53.6 °F 100% 30.28 in 3.0 mi Calm Calm - N/A   Scattered Clouds
4:51 AM 55.0 °F - 53.1 °F 93% 30.28 in 10.0 mi Calm Calm - N/A   Scattered Clouds
5:01 AM 53.1 °F - 52.0 °F 96% 30.28 in 2.5 mi Calm Calm - N/A   Mostly Cloudy
5:06 AM 54.0 °F - 53.1 °F 97% 30.28 in 1.2 mi South 3.5 mph - N/A   Mostly Cloudy
5:10 AM 53.1 °F - 52.0 °F 96% 30.28 in 0.8 mi South 3.5 mph - N/A   Mist
5:51 AM 54.0 °F - 54.0 °F 100% 30.30 in 0.2 mi Calm Calm - N/A Fog Fog
6:51 AM 55.0 °F - 55.0 °F 100% 30.31 in 0.5 mi Calm Calm - N/A Fog Fog
7:22 AM 55.9 °F - 55.9 °F 100% 30.31 in 1.2 mi Calm Calm - N/A   Overcast
7:24 AM 55.9 °F - 55.9 °F 100% 30.31 in 2.0 mi Calm Calm - N/A   Overcast
7:32 AM 57.0 °F - 57.0 °F 100% 30.32 in 9.0 mi Calm Calm - N/A   Mostly Cloudy
7:51 AM 57.9 °F - 57.9 °F 100% 30.32 in 10.0 mi Calm Calm - N/A   Mostly Cloudy
7:59 AM 57.9 °F - 57.9 °F 100% 30.32 in 10.0 mi Calm Calm - N/A   Partly Cloudy
8:51 AM 62.1 °F - 61.0 °F 96% 30.32 in 10.0 mi Calm Calm - N/A   Clear
9:51 AM 71.1 °F - 62.1 °F 73% 30.31 in 10.0 mi Calm Calm - N/A   Clear
10:51 AM 75.9 °F - 62.1 °F 62% 30.31 in 10.0 mi Calm Calm - N/A   Clear
11:51 AM 78.1 °F - 59.0 °F 52% 30.31 in 10.0 mi East 4.6 mph - N/A   Clear
12:51 PM 81.0 °F 81.0 °F 57.0 °F 44% 30.30 in 10.0 mi Variable 3.5 mph - N/A   Clear
1:51 PM 81.0 °F 81.1 °F 57.9 °F 45% 30.30 in 10.0 mi Calm Calm - N/A   Mostly Cloudy
2:51 PM 82.0 °F 82.0 °F 57.9 °F 44% 30.29 in 10.0 mi Variable 3.5 mph - N/A   Mostly Cloudy
3:51 PM 82.0 °F 81.6 °F 55.9 °F 41% 30.28 in 10.0 mi Variable 3.5 mph - N/A   Clear
4:51 PM 81.0 °F 81.0 °F 57.0 °F 44% 30.28 in 10.0 mi Variable 3.5 mph - N/A   Clear
5:51 PM 82.0 °F 82.0 °F 57.9 °F 44% 30.27 in 10.0 mi NNW 3.5 mph - N/A   Clear
6:51 PM 80.1 °F 80.6 °F 57.9 °F 47% 30.28 in 10.0 mi Calm Calm - N/A   Clear
7:51 PM 72.0 °F - 64.9 °F 78% 30.30 in 10.0 mi Calm Calm - N/A   Clear
8:51 PM 68.0 °F - 63.0 °F 84% 30.30 in 10.0 mi South 3.5 mph - N/A   Clear
9:51 PM 64.0 °F - 60.1 °F 87% 30.31 in 10.0 mi South 4.6 mph - N/A   Clear
10:51 PM 63.0 °F - 59.0 °F 87% 30.30 in 10.0 mi Calm Calm - N/A   Clear
11:51 PM 62.1 °F - 59.0 °F 90% 30.31 in 10.0 mi Calm Calm - N/A   Clear